N850SB LFPN-LSGG

Flight info

Callsign N850SB
Flight time N/A
Altitude 25000
Route PILUL2A/07L PILUL DCT LUSAR
Aircraft TBM8/L-SDFGRWY/S

Departure

Time 2026-04-24 18:58
Airport Toussus-le-Noble Airport (LFPN)

Arrival

Time N/A
Airport Geneva International Airport (LSGG)
Time Latitude Longitude Altitude Speed Heading
2026-04-24 18:54 48.75131 2.11156 512 ft 5 kts 277°
2026-04-24 18:55 48.75063 2.11007 512 ft 11 kts 189°
2026-04-24 18:55 48.75000 2.10998 512 ft 14 kts 194°
2026-04-24 18:55 48.74903 2.10866 512 ft 19 kts 233°
2026-04-24 18:56 48.74855 2.10758 512 ft 18 kts 248°
2026-04-24 18:56 48.74845 2.10544 512 ft 23 kts 269°
2026-04-24 18:56 48.74837 2.10271 512 ft 26 kts 268°
2026-04-24 18:56 48.74832 2.09986 512 ft 28 kts 268°
2026-04-24 18:57 48.74832 2.09811 512 ft 6 kts 280°
2026-04-24 18:57 48.74850 2.09765 512 ft 7 kts 317°
2026-04-24 18:57 48.74917 2.09735 512 ft 15 kts 11°
2026-04-24 18:57 48.75029 2.09830 512 ft 20 kts 30°
2026-04-24 18:58 48.75138 2.09952 511 ft 19 kts 64°
2026-04-24 18:58 48.75236 2.10384 512 ft 73 kts 71°
2026-04-24 18:58 48.75433 2.11280 737 ft 99 kts 69°
2026-04-24 18:58 48.75645 2.12351 1172 ft 117 kts 71°
2026-04-24 18:59 48.75850 2.13567 1713 ft 113 kts 75°
2026-04-24 18:59 48.76065 2.14748 2173 ft 125 kts 73°
2026-04-24 18:59 48.76263 2.16126 2542 ft 140 kts 80°
2026-04-24 18:59 48.76538 2.17545 3030 ft 146 kts 58°
2026-04-24 19:00 48.77163 2.18818 3339 ft 154 kts 65°
2026-04-24 19:00 48.77435 2.20369 3862 ft 146 kts 79°
2026-04-24 19:00 48.77665 2.21872 4340 ft 148 kts 75°
2026-04-24 19:00 48.77969 2.23383 4776 ft 153 kts 74°
2026-04-24 19:01 48.78318 2.24903 5263 ft 154 kts 71°
2026-04-24 19:01 48.78565 2.26492 5700 ft 157 kts 96°
2026-04-24 19:01 48.78047 2.27917 6202 ft 162 kts 140°
2026-04-24 19:01 48.76985 2.28467 6737 ft 164 kts 165°
2026-04-24 19:02 48.75954 2.29206 7237 ft 165 kts 147°
2026-04-24 19:02 48.74929 2.30029 7731 ft 168 kts 153°
2026-04-24 19:02 48.73853 2.30752 8238 ft 170 kts 155°
2026-04-24 19:02 48.72773 2.31455 8738 ft 172 kts 155°
2026-04-24 19:03 48.71666 2.32175 9244 ft 174 kts 155°
2026-04-24 19:03 48.70543 2.32908 9755 ft 176 kts 155°
2026-04-24 19:03 48.69407 2.33651 10226 ft 180 kts 155°
2026-04-24 19:03 48.68246 2.34405 10669 ft 183 kts 155°
2026-04-24 19:04 48.67079 2.35165 11148 ft 183 kts 155°
2026-04-24 19:04 48.65903 2.35936 11595 ft 186 kts 154°
2026-04-24 19:04 48.64705 2.36715 12054 ft 188 kts 154°
2026-04-24 19:04 48.63500 2.37495 12559 ft 188 kts 155°
2026-04-24 19:05 48.62299 2.38279 13061 ft 188 kts 154°
2026-04-24 19:05 48.61088 2.39067 13521 ft 191 kts 153°
2026-04-24 19:05 48.59866 2.39861 14004 ft 191 kts 154°
2026-04-24 19:05 48.58643 2.40656 14424 ft 192 kts 154°
2026-04-24 19:06 48.57426 2.41446 14840 ft 193 kts 154°
2026-04-24 19:06 48.56183 2.42252 15255 ft 195 kts 153°
2026-04-24 19:06 48.54932 2.43063 15684 ft 196 kts 153°
2026-04-24 19:06 48.53675 2.43878 16107 ft 197 kts 154°
2026-04-24 19:07 48.52419 2.44691 16550 ft 196 kts 154°
2026-04-24 19:07 48.51161 2.45508 16948 ft 198 kts 153°
2026-04-24 19:07 48.49890 2.46330 17373 ft 199 kts 153°
2026-04-24 19:07 48.48614 2.47154 17803 ft 200 kts 153°
2026-04-24 19:08 48.47336 2.47981 18229 ft 201 kts 153°
2026-04-24 19:08 48.46096 2.48936 18628 ft 198 kts 139°
2026-04-24 19:08 48.45168 2.50444 18957 ft 197 kts 125°
2026-04-24 19:08 48.44296 2.52059 19285 ft 200 kts 126°
2026-04-24 19:09 48.43406 2.53673 19627 ft 201 kts 126°
2026-04-24 19:09 48.42518 2.55305 19982 ft 201 kts 127°
2026-04-24 19:09 48.41626 2.56947 20300 ft 204 kts 127°
2026-04-24 19:09 48.40723 2.58598 20668 ft 204 kts 126°
2026-04-24 19:10 48.39827 2.60241 21052 ft 203 kts 126°
2026-04-24 19:10 48.38928 2.61888 21391 ft 204 kts 126°
2026-04-24 19:10 48.38024 2.63543 21731 ft 205 kts 126°
2026-04-24 19:10 48.37117 2.65199 22069 ft 206 kts 126°
2026-04-24 19:11 48.36203 2.66870 22401 ft 207 kts 126°
2026-04-24 19:11 48.35287 2.68544 22729 ft 208 kts 126°
2026-04-24 19:11 48.34366 2.70224 23057 ft 209 kts 126°
2026-04-24 19:11 48.33442 2.71912 23378 ft 210 kts 126°
2026-04-24 19:12 48.32513 2.73606 23698 ft 210 kts 126°
2026-04-24 19:12 48.31579 2.75306 23963 ft 211 kts 126°
2026-04-24 19:12 48.30653 2.76994 24213 ft 213 kts 126°
2026-04-24 19:12 48.29696 2.78736 24475 ft 214 kts 126°
2026-04-24 19:13 48.29068 2.79877 24627 ft 215 kts 126°
2026-04-24 19:13 48.27801 2.82176 24952 ft 217 kts 127°
2026-04-24 19:13 48.26646 2.83679 25125 ft 225 kts 140°
2026-04-24 19:13 48.25362 2.85135 25134 ft 237 kts 139°
2026-04-24 19:14 48.24029 2.86692 25141 ft 249 kts 139°
2026-04-24 19:14 48.22633 2.88317 25141 ft 259 kts 139°
2026-04-24 19:14 48.21179 2.89999 25141 ft 268 kts 139°
2026-04-24 19:14 48.19680 2.91731 25142 ft 276 kts 139°
2026-04-24 19:15 48.18142 2.93509 25142 ft 283 kts 139°
2026-04-24 19:15 48.16566 2.95332 25138 ft 289 kts 139°
2026-04-24 19:15 48.14959 2.97186 25138 ft 294 kts 139°
2026-04-24 19:15 48.13328 2.99067 25141 ft 298 kts 140°
2026-04-24 19:16 48.10024 3.02870 25135 ft 300 kts 140°
2026-04-24 19:16 48.08375 3.04795 25135 ft 301 kts 137°
2026-04-24 19:16 48.06921 3.07036 25134 ft 300 kts 131°
2026-04-24 19:17 48.05489 3.09308 25137 ft 301 kts 132°
2026-04-24 19:17 48.04031 3.11563 25137 ft 301 kts 132°
2026-04-24 19:17 48.02578 3.13829 25141 ft 302 kts 131°
2026-04-24 19:17 48.01132 3.16097 25132 ft 302 kts 131°
2026-04-24 19:18 47.99679 3.18370 25132 ft 303 kts 131°
2026-04-24 19:18 47.98223 3.20642 25131 ft 303 kts 131°
2026-04-24 19:18 47.96766 3.22915 25139 ft 303 kts 131°
2026-04-24 19:18 47.95303 3.25195 25130 ft 305 kts 131°
2026-04-24 19:19 47.93849 3.27459 25132 ft 306 kts 131°
2026-04-24 19:19 47.92378 3.29748 25132 ft 306 kts 131°
2026-04-24 19:19 47.90902 3.32043 25128 ft 307 kts 131°
2026-04-24 19:19 47.89425 3.34338 25128 ft 307 kts 131°
2026-04-24 19:20 47.87944 3.36635 25129 ft 308 kts 131°
2026-04-24 19:20 47.86461 3.38934 25137 ft 307 kts 134°
2026-04-24 19:20 47.84985 3.41215 25137 ft 305 kts 134°
2026-04-24 19:20 47.83520 3.43482 25129 ft 303 kts 134°
2026-04-24 19:21 47.82059 3.45743 25130 ft 302 kts 134°
2026-04-24 19:21 47.80609 3.47985 25129 ft 301 kts 134°
2026-04-24 19:21 47.79161 3.50220 25128 ft 300 kts 134°
2026-04-24 19:21 47.77713 3.52454 25127 ft 299 kts 134°
2026-04-24 19:22 47.76758 3.53925 25127 ft 299 kts 134°
2026-04-24 19:22 47.74842 3.56876 25126 ft 299 kts 134°
2026-04-24 19:22 47.73379 3.59127 25127 ft 300 kts 134°
2026-04-24 19:22 47.71950 3.61326 25126 ft 300 kts 134°
2026-04-24 19:23 47.70500 3.63552 25123 ft 300 kts 134°
2026-04-24 19:23 47.69043 3.65787 25123 ft 300 kts 134°
2026-04-24 19:23 47.67592 3.68011 25123 ft 301 kts 134°
2026-04-24 19:23 47.66136 3.70243 25126 ft 301 kts 134°
2026-04-24 19:24 47.64680 3.72471 25127 ft 301 kts 134°
2026-04-24 19:24 47.63221 3.74700 25126 ft 301 kts 134°
2026-04-24 19:24 47.61765 3.76926 25126 ft 301 kts 134°
2026-04-24 19:24 47.60306 3.79154 25126 ft 301 kts 134°
2026-04-24 19:25 47.58847 3.81379 25128 ft 301 kts 134°
2026-04-24 19:25 47.57388 3.83602 25128 ft 301 kts 134°
2026-04-24 19:25 47.55926 3.85828 25129 ft 301 kts 134°
2026-04-24 19:25 47.54465 3.88051 25129 ft 301 kts 134°
2026-04-24 19:26 47.53003 3.90275 25127 ft 301 kts 134°
2026-04-24 19:26 47.51539 3.92500 25130 ft 303 kts 135°
2026-04-24 19:26 47.50068 3.94732 25128 ft 304 kts 135°
2026-04-24 19:26 47.48587 3.96977 25129 ft 305 kts 135°
2026-04-24 19:27 47.47106 3.99220 25132 ft 305 kts 135°
2026-04-24 19:27 47.45625 4.01462 25132 ft 306 kts 135°
2026-04-24 19:27 47.44139 4.03709 25132 ft 306 kts 135°
2026-04-24 19:27 47.42651 4.05956 25132 ft 306 kts 135°
2026-04-24 19:28 47.41160 4.08209 25133 ft 306 kts 135°
2026-04-24 19:28 47.39672 4.10453 25133 ft 306 kts 135°
2026-04-24 19:28 47.38181 4.12701 25130 ft 307 kts 135°
2026-04-24 19:28 47.36688 4.14951 25118 ft 306 kts 137°
2026-04-24 19:29 47.33743 4.19377 25128 ft 299 kts 138°
2026-04-24 19:29 47.32291 4.21554 25128 ft 297 kts 138°
2026-04-24 19:29 47.30847 4.23722 25127 ft 295 kts 138°
2026-04-24 19:30 47.29408 4.25882 25128 ft 295 kts 139°
2026-04-24 19:30 47.27967 4.28040 25127 ft 296 kts 139°
2026-04-24 19:30 47.26541 4.30177 25126 ft 296 kts 139°
2026-04-24 19:30 47.25097 4.32337 25125 ft 296 kts 139°
2026-04-24 19:31 47.23650 4.34500 25128 ft 296 kts 139°
2026-04-24 19:31 47.22205 4.36658 25129 ft 296 kts 139°
2026-04-24 19:31 47.20758 4.38816 25129 ft 296 kts 139°
2026-04-24 19:31 47.19309 4.40976 25129 ft 297 kts 139°
2026-04-24 19:32 47.17860 4.43137 25123 ft 297 kts 139°
2026-04-24 19:32 47.16409 4.45296 25124 ft 297 kts 139°
2026-04-24 19:32 47.14956 4.47456 25123 ft 297 kts 139°
2026-04-24 19:32 47.13503 4.49615 25124 ft 297 kts 139°
2026-04-24 19:33 47.12053 4.51769 25127 ft 297 kts 139°
2026-04-24 19:33 47.10602 4.53921 25115 ft 295 kts 140°
2026-04-24 19:33 47.09167 4.56048 25123 ft 292 kts 140°
2026-04-24 19:33 47.07739 4.58167 25120 ft 292 kts 140°
2026-04-24 19:34 47.06311 4.60275 25121 ft 291 kts 140°
2026-04-24 19:34 47.04881 4.62388 25116 ft 291 kts 140°